sat.trackr.live / text

‹ back to catalog

STARLINK-36440

NORAD 67447 · 2026-008C

PAYLOAD ACTIVE UNKNOWN

§ Identity

Operator
Country
US
Launch date
2026-01-14
Launch site
AFETR
Launch vehicle
Mass (kg)
RCS (m²)

Purposes: comms

External: N2YO · Heavens-Above · Gunter

§ Orbital elements

Epoch: 2026-09-19T03:37:16.556448Z

Period
94.27 min
Inclination
42.9994°
Eccentricity
0.0001416
Mean motion
15.27590558 rev/d
Perigee alt
482.0 km
Apogee alt
484.0 km
Semi-major
6,861.2 km
B*
5.3676e-4
RAAN
192.3026°
Arg perigee
262.9489°
Mean anomaly
97.1201°
Rev number
3,916

§ Raw data

STARLINK-364401 67447U 26008C   26262.15088607  .00014542  00000+0  53676-3 0  99922 67447  42.9994 192.3026 0001416 262.9489  97.1201 15.27590558 39168

JSON: /api/v1/satellites/67447 · /tle

For live sub-satellite position, see the globe view (requires WebGL).

§ Visibility from observer

Set your observer location to see the next 7 days of passes ≥ 10°. The values pass through the URL so the page stays shareable.

No JS? Fill the form by hand. The geolocation button needs JavaScript.